Theta_e
314 314 314 316 314 317 323 322 326 329 332 330 328 329 325 325 326 325 323 323 324 321 320 320 320 320 321 321 321 320 320 321 322 322 327 328 320 320 320 320 320 320 321 318 319 321 323 325 326 326 326 327 327 327 327 328 328 327 327 328 328 326 324 323 322 322 322 322 321 321 322 322 321 321 321 321 321 321 321 323 323 322 322 323 328 333 334 334 334 331 327 327 329 330 331 329 327
313 314 314 314 316 321 322 322 328 330 332 326 323 326 323 328 327 323 323 323 324 321 320 320 320 321 320 321 320 320 321 321 321 321 323 323 321 322 320 319 320 319 321 319 319 320 321 323 325 326 326 326 326 326 326 326 326 326 326 326 325 324 323 322 322 321 321 321 321 321 321 321 321 321 324 326 326 325 325 324 323 323 323 326 330 333 334 334 333 327 323 325 327 329 331 330 329
313 314 314 316 321 323 324 327 332 329 328 322 321 326 322 325 324 321 324 321 321 320 321 321 322 322 320 321 320 321 322 321 321 321 322 323 325 324 319 319 319 320 321 319 319 319 320 322 323 325 325 325 325 326 325 324 324 325 325 324 324 323 323 322 322 321 321 321 321 321 321 321 321 324 329 331 331 329 327 325 324 324 325 330 331 333 334 334 331 325 322 323 324 326 327 327 327
313 314 316 319 322 325 328 329 333 326 322 322 321 325 323 323 322 321 322 320 322 321 321 321 321 322 321 321 321 321 320 320 320 320 322 323 324 321 318 318 319 320 320 320 320 319 320 321 322 324 324 324 325 325 325 325 324 324 324 323 323 323 323 322 322 322 321 321 321 321 321 322 323 328 332 332 332 329 325 325 325 325 328 332 332 333 333 332 329 324 321 320 321 321 321 322 323
313 315 317 321 324 325 328 326 329 323 319 326 321 320 322 321 322 321 320 321 321 320 321 321 321 321 321 322 321 320 320 320 320 320 320 319 320 318 317 317 318 319 321 321 320 320 320 320 322 323 324 324 324 324 324 324 324 324 324 324 324 323 323 323 323 322 322 322 322 322 322 325 327 331 333 333 331 327 324 324 326 327 331 333 333 333 332 331 328 323 320 316 317 317 316 317 318
315 316 317 321 323 321 326 327 330 327 325 330 322 320 321 319 321 320 320 321 321 321 320 320 321 321 320 321 320 320 320 320 319 319 318 317 318 317 316 316 317 318 320 321 321 321 320 320 320 322 323 323 323 323 323 323 323 323 323 324 324 324 324 324 324 324 323 323 323 323 324 326 328 331 333 332 330 327 325 325 327 328 331 333 333 333 332 330 327 321 317 313 312 313 312 313 314
320 321 319 320 322 320 325 326 328 329 327 326 320 320 320 319 321 319 321 320 321 321 320 321 320 320 320 320 321 320 320 320 319 318 317 316 317 317 317 316 316 317 319 321 321 321 320 320 320 321 322 323 322 322 323 322 322 321 321 321 323 325 326 326 326 325 324 324 324 324 326 328 328 330 332 331 329 328 326 323 325 327 328 330 331 331 329 326 323 317 313 311 311 311 311 311 312
322 323 320 323 328 324 326 326 329 328 322 321 320 320 319 319 320 320 321 319 321 321 321 321 319 321 321 320 320 320 320 320 319 318 317 317 316 317 317 316 316 316 318 320 321 321 321 320 319 320 321 322 322 321 322 322 322 321 321 321 321 323 325 326 326 326 325 325 324 324 328 332 330 329 330 330 330 329 324 320 322 324 325 326 327 327 325 323 320 315 311 310 310 310 311 310 310
321 323 320 324 330 326 328 329 330 328 321 321 319 319 319 320 320 320 321 320 320 320 321 321 320 321 320 319 319 320 320 321 319 319 318 317 317 316 316 316 316 316 317 319 320 321 321 321 320 319 320 321 321 321 321 321 322 321 321 321 320 321 323 325 326 327 325 324 323 323 329 333 332 330 329 328 329 328 323 319 319 320 322 324 325 324 323 321 317 313 310 308 308 308 308 307 306
322 322 320 327 331 325 329 330 329 329 323 320 318 319 319 319 319 320 320 320 320 320 321 320 320 320 320 319 319 319 320 321 320 319 318 317 317 316 316 316 316 316 316 317 319 320 321 321 320 319 319 319 320 320 319 319 320 319 320 319 319 319 321 323 325 326 325 324 322 322 329 333 333 332 330 327 328 327 323 319 317 318 319 321 323 324 322 319 315 312 309 306 305 305 305 305 304
324 321 319 327 330 325 326 326 327 329 324 319 319 319 319 319 318 319 319 319 319 318 319 320 320 319 319 319 319 319 320 322 320 319 318 317 317 316 316 316 316 316 316 316 317 319 320 321 321 320 319 318 318 318 317 317 317 317 318 318 317 317 318 320 322 325 324 323 321 321 329 333 334 333 330 327 327 326 322 319 316 316 316 316 318 319 318 315 312 310 307 305 305 304 304 304 304
325 325 324 326 326 325 324 323 325 329 326 322 320 318 319 319 318 319 318 317 317 316 318 319 319 318 317 318 318 319 320 321 320 320 318 317 317 316 316 316 316 316 316 316 316 318 319 320 321 321 320 319 318 317 316 315 316 316 316 317 316 316 316 317 320 323 322 321 320 321 329 333 334 334 331 328 327 324 320 316 314 313 313 312 313 314 313 311 309 308 306 305 305 304 304 304 304
323 326 327 327 327 324 323 323 326 330 328 322 318 318 318 318 318 319 318 316 317 316 318 319 318 318 318 318 317 318 319 319 320 320 318 317 317 316 316 316 316 316 316 316 316 316 317 319 320 321 321 320 319 317 316 315 314 314 315 316 315 315 315 317 319 321 321 320 320 322 329 333 333 333 330 327 326 322 316 312 311 310 310 310 310 309 309 309 307 306 305 305 304 304 304 304 304
322 323 324 328 330 325 324 325 326 325 325 322 317 318 317 317 318 318 318 318 317 317 319 319 318 317 317 317 318 319 318 319 319 319 318 318 317 317 316 316 315 316 316 316 316 316 316 317 318 320 321 321 320 318 317 315 314 314 314 314 314 314 314 315 318 319 319 320 321 323 330 332 332 332 330 327 325 320 314 311 311 309 308 308 307 307 307 307 307 306 305 304 304 304 304 304 305
320 322 324 326 329 328 327 326 326 323 322 323 318 318 318 318 318 317 318 318 318 317 318 318 317 317 317 317 319 319 318 318 319 319 319 317 317 317 316 316 315 315 316 316 316 316 316 316 316 318 319 321 321 320 318 316 315 314 314 314 313 313 313 314 316 318 318 320 321 323 329 331 332 332 330 328 325 319 313 312 312 309 307 306 305 306 306 306 306 305 305 304 304 304 304 305 306
318 322 326 327 328 328 328 326 326 325 323 321 317 318 318 318 318 317 318 318 318 317 317 318 317 317 317 317 317 317 317 317 318 318 318 317 317 317 316 316 315 315 315 315 316 315 315 316 316 316 317 318 319 320 319 318 317 315 315 314 313 313 313 313 314 316 316 318 320 323 328 330 331 331 329 326 321 316 313 313 312 309 306 304 305 305 306 306 305 305 304 304 304 304 305 306 307
317 323 328 327 329 328 328 325 321 322 322 319 316 318 318 318 318 317 318 318 318 318 318 317 317 317 317 317 316 317 318 317 318 318 317 317 317 317 317 316 315 315 315 315 315 315 315 315 316 316 316 316 317 318 319 319 318 317 316 314 314 313 313 313 314 315 315 315 318 322 325 328 329 328 325 321 315 313 312 311 312 310 306 304 305 305 306 305 305 305 304 305 304 305 306 306 306
319 328 326 325 330 328 326 323 318 319 320 318 317 317 317 318 317 317 318 317 318 317 317 317 317 317 316 316 316 317 317 317 318 318 318 318 318 318 317 317 316 315 315 314 315 315 315 315 315 315 316 316 316 316 317 318 318 318 317 316 315 314 314 313 313 314 315 314 316 320 323 325 325 322 319 315 313 312 311 310 311 310 305 304 305 305 305 305 305 305 304 305 305 306 306 306 306
321 327 325 329 335 327 321 319 317 318 319 318 318 317 318 318 317 316 317 316 316 317 317 317 317 316 316 316 316 316 316 317 318 318 319 318 318 318 318 317 316 315 314 314 314 315 315 315 315 315 315 315 316 316 316 316 317 318 318 317 316 314 314 314 313 313 313 313 314 318 321 322 321 317 315 313 312 311 310 310 310 309 305 304 305 305 305 305 305 305 305 305 305 306 306 306 306
321 322 326 334 330 321 319 318 317 318 318 318 318 318 318 318 317 317 316 316 316 317 317 317 317 317 315 316 316 316 316 317 317 317 318 318 318 318 317 317 316 314 314 313 314 314 315 315 315 315 315 315 315 315 316 316 316 317 317 317 317 316 315 314 314 313 313 312 313 315 318 318 317 316 314 314 313 311 310 310 309 308 306 305 305 305 305 305 305 305 305 305 306 306 306 306 306
321 321 327 330 321 319 321 319 319 318 319 318 317 319 318 318 318 317 316 317 317 316 316 317 317 316 316 316 316 317 317 317 317 317 317 317 317 317 317 317 315 314 314 314 314 314 314 314 314 314 315 315 315 315 315 316 316 316 317 317 317 317 316 315 314 313 312 312 311 313 314 315 314 314 314 313 312 311 310 309 309 308 306 305 305 305 305 306 305 305 305 305 306 306 306 306 306
320 320 322 322 318 320 321 319 319 318 318 318 317 318 318 318 317 317 317 317 317 316 316 316 316 316 316 317 317 317 317 317 318 317 317 317 316 316 316 316 315 314 314 314 313 313 314 314 315 315 315 314 314 315 315 315 316 316 316 317 317 317 316 315 315 314 313 311 311 311 312 313 312 312 312 312 312 311 310 309 309 308 307 305 305 306 305 306 306 305 304 304 306 306 306 306 306
321 321 318 318 319 318 319 318 318 317 317 318 318 318 317 317 317 317 316 316 316 316 316 316 316 316 316 316 317 317 316 316 317 317 317 317 316 316 316 316 315 315 314 314 314 314 314 314 314 315 315 315 314 314 314 315 315 315 316 316 317 317 317 316 315 314 314 313 311 311 311 312 312 312 312 312 312 311 310 310 309 309 307 306 305 306 306 306 306 305 304 304 305 306 306 306 306
320 322 319 319 319 318 318 318 317 317 317 318 318 317 317 317 318 317 316 316 316 316 316 316 316 316 316 316 316 316 316 316 316 316 316 316 316 316 316 316 315 315 315 314 314 314 314 314 314 314 315 314 314 314 314 314 315 315 316 316 317 317 317 317 316 315 315 314 313 311 311 312 312 311 312 312 312 311 311 311 310 309 308 306 305 306 306 306 306 305 304 304 305 306 306 306 305
317 319 318 317 318 317 317 317 316 317 317 317 317 316 316 317 317 316 316 317 317 317 316 316 316 316 316 316 316 316 316 316 316 316 316 315 315 316 316 316 315 315 315 315 315 315 315 315 315 315 315 315 315 315 315 315 315 315 315 316 316 316 317 317 317 317 316 315 314 313 312 311 311 311 312 312 312 312 312 312 311 310 309 307 306 306 306 307 307 306 304 304 305 305 306 306 305
316 316 315 315 315 316 316 315 316 316 316 315 315 315 315 315 317 316 316 317 317 317 316 316 316 315 316 316 316 316 316 316 316 315 315 315 315 315 315 315 315 315 315 315 315 315 315 315 316 316 316 316 315 316 316 315 315 315 315 315 316 316 316 317 317 318 318 317 316 315 313 313 312 312 312 312 312 312 312 313 313 311 310 307 306 306 306 307 307 306 305 305 305 306 305 305 305
315 314 315 314 315 315 315 315 315 315 314 314 314 314 314 314 315 316 317 317 318 317 316 316 316 316 316 316 316 316 316 315 315 315 315 315 315 315 316 315 316 316 315 316 315 316 316 316 316 316 316 316 316 317 317 317 317 317 317 317 317 317 317 318 318 318 318 318 317 316 316 315 314 313 313 313 312 312 312 312 313 312 311 309 307 306 306 306 307 307 305 304 305 305 305 305 305
315 314 315 315 314 315 315 314 314 314 314 315 314 314 313 314 315 316 316 318 317 316 316 316 316 316 316 316 316 315 315 314 314 314 314 314 315 315 315 315 315 316 316 316 317 317 316 316 316 316 316 317 317 317 317 318 318 318 319 320 320 320 320 320 320 320 319 319 318 318 318 317 316 315 314 314 313 313 312 312 312 313 312 310 308 306 305 306 306 307 305 304 304 304 304 304 305
314 314 315 315 314 314 314 314 314 314 314 315 314 314 316 315 315 316 316 317 316 315 316 316 316 316 316 316 315 315 314 314 314 314 314 314 314 315 315 315 315 315 315 315 316 316 315 315 316 317 317 317 317 318 318 318 319 319 320 321 322 323 323 323 322 322 322 321 321 320 320 319 319 318 317 316 316 314 313 313 313 312 312 311 309 307 305 305 306 306 305 304 304 304 304 304 305
315 314 314 316 315 316 315 314 315 314 313 315 315 316 320 318 315 317 317 316 316 316 316 317 317 317 316 315 315 314 314 314 314 314 314 314 314 314 314 314 314 314 314 314 314 314 314 314 315 317 317 317 318 318 319 319 320 320 321 322 323 324 324 325 325 325 325 324 323 323 323 322 322 321 320 320 319 318 316 315 314 313 313 312 310 308 306 305 305 306 306 305 304 304 303 303 304
315 313 315 316 315 319 318 314 315 315 313 314 315 317 320 319 317 317 317 316 316 316 317 316 316 315 315 315 313 313 314 314 314 313 313 314 314 314 314 314 314 313 314 313 313 313 313 313 315 316 316 317 318 319 320 320 321 322 322 322 323 324 324 325 326 326 325 325 325 325 325 325 324 324 323 322 322 321 319 317 316 314 313 313 310 309 308 306 305 305 305 305 304 303 303 303 303
315 314 321 321 316 320 319 314 315 315 314 312 314 318 318 317 315 316 317 316 316 315 315 316 315 314 313 313 313 312 312 312 312 313 313 313 313 314 313 313 313 313 313 313 313 312 313 313 315 315 316 317 318 319 320 322 323 323 323 323 323 324 324 325 326 326 326 326 326 326 326 326 326 325 324 324 323 323 321 320 318 316 315 314 311 310 309 307 306 304 304 305 304 303 303 303 303
320 316 321 323 318 318 320 318 315 314 315 313 313 317 318 316 315 316 317 316 315 314 314 315 314 314 313 313 312 312 311 311 312 312 312 313 313 313 312 312 312 312 312 312 312 312 312 313 314 315 315 316 317 319 321 323 323 324 324 324 324 324 325 325 326 326 326 326 326 326 326 326 326 326 325 325 324 323 322 321 320 318 316 315 313 312 310 308 306 304 304 304 304 303 303 303 303
325 320 319 322 320 318 320 322 316 312 315 315 314 314 315 316 315 314 316 315 315 314 313 314 313 313 312 312 311 310 310 311 310 310 311 311 311 310 310 310 310 310 311 311 312 312 312 313 314 314 315 316 316 316 320 323 324 324 324 324 324 325 325 325 325 325 325 325 326 326 326 326 326 326 325 325 325 324 323 322 321 320 318 317 316 315 312 310 307 305 304 303 303 303 302 302 302
324 323 321 322 321 320 320 321 318 316 317 316 316 315 314 315 313 313 315 315 315 314 314 313 313 312 311 310 309 309 309 308 307 307 308 309 309 308 308 308 309 309 309 310 311 311 312 312 313 314 314 314 313 313 316 320 322 323 324 324 324 324 324 325 325 324 324 324 324 325 325 325 325 325 325 325 325 324 323 323 322 321 320 319 318 317 314 312 309 307 305 304 303 302 302 301 301
321 321 321 321 320 320 319 318 318 317 317 317 318 317 315 316 315 313 315 316 314 314 314 313 311 310 309 308 307 307 307 306 305 306 308 308 308 308 307 307 308 308 309 309 310 311 311 312 312 312 311 310 310 311 314 315 316 318 321 323 323 323 323 323 323 323 323 323 323 324 324 324 324 324 324 324 324 323 323 323 322 321 320 320 319 318 316 315 312 309 306 304 303 302 302 301 300
317 317 319 320 320 320 318 318 318 315 316 319 319 317 317 318 318 315 314 315 314 313 313 311 310 308 307 306 305 305 305 304 305 306 307 307 307 307 307 307 307 308 308 309 310 310 310 310 310 309 310 310 310 311 312 312 312 314 315 317 319 320 321 321 321 321 322 322 322 322 322 323 323 323 323 323 322 322 322 321 321 321 321 320 319 319 318 317 314 311 308 305 303 302 302 301 300
316 317 319 321 321 319 317 317 317 314 315 320 320 317 318 318 318 315 313 314 313 311 311 310 309 307 306 305 304 304 304 304 306 306 307 307 307 307 307 307 307 308 308 308 309 309 309 309 309 309 310 310 311 311 311 312 314 315 315 315 315 315 316 317 318 318 319 320 320 321 321 321 321 321 321 321 321 320 320 320 320 320 320 320 320 319 318 317 315 313 310 307 305 303 302 301 301
318 319 319 320 320 318 320 319 317 314 315 321 321 317 317 318 317 314 312 312 311 310 310 308 307 306 305 304 303 304 304 305 306 305 306 306 306 307 307 308 307 307 307 308 308 308 308 308 307 308 308 309 309 310 310 310 313 314 315 315 316 315 315 314 314 313 314 315 316 316 317 318 318 318 318 318 318 318 318 318 318 319 319 319 319 319 318 317 316 315 313 310 307 304 302 301 301
320 319 318 320 319 317 321 322 319 316 315 318 319 317 317 317 317 314 310 310 310 309 308 307 306 305 304 303 303 303 303 304 304 305 305 306 306 307 307 307 307 307 308 308 308 308 308 308 308 307 307 307 307 308 307 308 308 309 311 313 314 314 313 312 311 310 309 309 310 310 311 312 312 313 313 314 314 315 315 316 316 316 317 317 317 318 317 317 317 316 315 313 310 306 303 302 301
324 322 319 320 320 317 319 321 320 319 321 321 318 320 323 320 318 315 310 309 309 307 307 306 305 304 303 303 302 302 302 303 303 304 305 305 305 306 307 307 307 307 307 308 308 309 308 308 308 308 308 308 307 307 307 307 307 307 307 308 309 309 309 308 308 308 307 307 306 306 306 306 306 307 307 308 309 310 311 313 313 314 314 315 315 316 316 316 316 316 315 314 312 308 305 303 301
324 325 321 320 320 319 320 323 323 321 324 323 318 323 330 326 320 318 312 309 308 307 306 305 304 303 303 302 301 301 301 302 302 302 303 304 305 305 306 306 306 306 306 306 307 308 308 308 308 308 308 308 308 307 307 307 307 306 306 306 306 307 307 307 307 306 306 305 305 305 304 304 304 304 304 305 305 306 307 309 310 311 312 313 313 314 314 314 314 314 313 312 311 310 307 303 301
322 323 322 323 322 320 323 323 321 322 323 320 317 321 326 323 321 321 314 310 309 307 305 305 303 302 302 301 300 300 300 301 302 302 302 303 304 305 305 305 305 305 304 305 306 307 307 307 307 307 307 307 307 307 307 307 307 306 306 306 306 306 306 306 306 305 305 305 304 304 304 304 304 304 304 304 304 304 304 305 306 308 309 310 311 311 312 312 313 313 312 311 310 309 307 304 302
323 321 320 324 322 318 321 319 318 322 321 319 319 318 319 320 321 319 314 310 308 307 305 304 303 302 301 300 300 299 299 299 301 301 301 301 303 303 304 304 304 304 304 305 306 306 307 307 307 306 306 306 306 306 306 306 306 306 306 305 305 305 305 305 305 305 305 304 304 304 304 303 303 303 303 303 303 303 303 303 304 304 306 307 308 309 310 310 311 311 311 310 309 308 307 305 303
324 321 316 318 317 315 319 316 317 320 318 319 322 317 317 324 325 316 311 312 309 307 306 304 303 302 301 300 299 299 298 298 299 300 300 300 301 302 303 304 305 304 304 304 305 306 306 306 306 305 305 305 305 305 305 305 305 305 305 305 305 305 304 304 304 304 304 304 305 304 304 303 303 303 303 303 303 303 303 303 302 303 303 304 305 306 307 308 308 309 309 308 308 307 307 306 304
318 317 316 319 318 316 317 315 317 318 317 320 322 319 318 325 330 318 311 314 311 307 306 304 302 302 300 300 299 298 298 298 298 299 299 299 300 301 303 304 305 304 304 304 305 305 305 305 305 305 304 304 304 304 304 304 304 304 304 304 304 304 304 304 303 303 303 303 304 304 304 303 303 303 303 302 302 302 302 302 302 302 302 302 302 303 304 305 306 307 307 307 307 306 305 305 305
313 316 320 323 322 320 318 319 321 317 319 325 322 320 317 321 332 324 313 315 312 307 306 303 302 301 300 300 299 298 298 297 298 299 299 300 301 302 303 304 303 303 304 304 304 304 305 304 304 304 304 303 303 303 303 303 303 303 303 302 302 302 303 303 303 303 303 303 303 303 303 303 302 302 302 302 302 302 302 302 301 301 301 301 301 301 301 302 303 304 305 305 305 305 304 304 304
314 320 321 322 325 325 320 321 322 318 324 331 324 321 317 318 329 325 313 312 310 308 306 303 301 300 300 299 298 298 298 298 299 300 300 301 302 303 303 303 303 304 304 304 304 304 304 304 303 303 303 302 302 302 302 302 302 302 301 301 301 301 301 301 301 301 302 302 302 302 302 302 302 302 301 301 301 302 302 302 302 301 301 300 300 301 301 301 301 301 302 303 303 304 304 303 303
317 319 320 322 325 324 321 321 321 320 326 329 323 320 319 320 322 316 309 308 308 307 304 302 301 300 299 299 298 297 298 299 300 301 302 303 303 304 303 304 303 303 303 303 303 303 303 303 302 302 302 301 301 301 301 301 300 301 301 301 301 300 300 300 299 299 299 300 300 300 301 301 301 301 301 301 301 301 301 301 301 301 301 300 300 300 300 300 300 300 300 300 301 302 302 302 302
315 317 320 324 322 319 321 321 318 319 322 323 318 316 319 323 317 308 304 304 304 304 302 301 301 299 299 298 298 298 298 300 301 302 303 303 303 303 303 303 302 302 302 301 301 301 301 301 301 301 300 300 300 300 300 300 300 300 300 300 300 300 300 299 299 298 298 298 298 298 299 299 299 300 300 300 300 300 300 301 301 301 301 301 300 300 299 299 299 299 299 299 300 300 300 301 301
314 319 321 322 323 320 319 318 317 319 324 323 318 317 322 324 314 304 302 302 301 301 301 300 300 299 299 298 297 298 299 300 301 301 302 302 302 302 301 301 300 300 300 299 300 299 300 300 299 299 299 298 299 298 299 299 298 299 299 299 299 299 299 298 298 298 297 297 297 297 297 298 298 298 298 298 299 299 300 300 300 301 301 301 301 300 299 299 299 299 299 299 299 299 299 299 299
316 317 318 320 324 323 319 319 320 320 323 322 319 321 322 316 307 303 302 301 300 300 300 299 299 298 298 298 298 298 299 299 300 301 301 301 300 300 299 298 298 297 297 297 297 297 297 297 297 297 296 296 296 296 297 297 297 297 297 297 297 297 297 297 297 297 296 296 296 296 296 296 297 297 297 297 297 297 298 298 299 299 300 300 301 301 301 300 299 299 299 299 299 299 298 298 298
319 316 321 324 321 319 319 322 322 318 319 319 317 320 317 310 307 305 302 302 301 300 299 299 298 298 297 297 298 298 298 299 300 300 300 299 299 298 297 296 296 296 296 296 295 295 294 294 294 294 293 293 293 293 293 294 294 294 294 294 294 294 294 294 294 295 295 294 294 294 294 294 295 295 295 295 295 296 296 296 297 297 298 298 299 300 301 301 301 300 300 299 299 299 298 298 298
320 318 321 321 316 317 319 320 320 318 318 318 315 317 316 313 313 306 303 304 302 300 300 298 298 298 297 297 297 297 298 299 299 299 298 297 297 296 296 296 296 295 295 294 294 293 293 292 292 292 291 291 291 291 291 291 291 291 291 292 292 292 292 292 292 292 292 292 292 293 292 293 293 293 293 293 293 293 293 294 294 295 296 296 297 297 298 299 300 301 301 300 300 299 299 299 298
314 315 315 315 316 319 319 318 319 319 317 318 319 318 317 316 314 308 306 306 303 301 300 299 298 297 297 297 297 298 299 299 298 298 297 296 296 296 296 296 295 295 294 293 293 292 292 291 291 291 290 290 290 290 290 290 290 290 290 290 290 290 290 290 290 290 290 290 291 291 291 291 291 291 291 292 292 292 292 291 291 292 292 293 294 295 296 297 298 299 300 300 300 299 298 299 298
310 313 314 316 317 318 319 317 319 320 317 318 319 318 320 319 313 312 310 306 302 301 301 299 298 297 297 298 299 299 299 298 297 296 296 296 296 296 296 295 295 294 293 292 292 292 291 291 290 290 289 289 289 289 289 289 289 289 289 289 288 289 289 289 289 289 289 289 289 289 289 290 290 290 290 290 290 290 290 291 290 290 289 290 290 291 292 294 295 296 297 298 299 299 298 299 298
315 316 315 315 315 316 317 315 317 318 317 318 317 317 323 319 310 310 310 305 302 301 301 300 298 298 299 300 300 300 298 297 297 296 296 296 296 296 295 295 294 293 293 292 291 291 291 290 290 289 289 289 289 289 288 288 288 288 288 288 288 288 288 288 288 288 288 288 288 288 288 288 288 288 289 289 289 289 289 289 289 289 289 288 288 288 289 290 291 292 293 295 296 297 298 298 298
320 320 318 317 317 316 316 315 316 316 316 318 316 316 320 315 308 308 307 304 302 301 300 300 299 299 300 300 300 299 298 297 297 296 296 295 294 294 293 293 293 292 292 291 291 290 290 289 289 289 289 289 289 289 288 288 288 288 288 287 287 287 287 287 287 287 287 287 287 287 287 287 287 287 287 287 288 288 288 288 288 289 289 288 288 288 288 288 288 288 289 291 292 294 295 296 297
Wind_Speed
7 6 7 6 6 4 5 6 2 2 3 1 3 1 2 2 2 3 3 3 2 1 2 3 2 3 3 2 3 4 5 5 5 2 2 4 3 1 0 2 4 2 0 3 7 11 13 15 16 16 15 14 14 14 13 13 12 12 12 12 12 12 13 13 12 12 11 10 9 8 7 7 7 6 6 6 6 5 5 4 4 3 3 4 5 5 5 5 4 3 1 1 2 1 2 3 3
5 4 4 4 3 4 4 4 2 2 5 2 3 1 2 3 4 3 3 3 2 1 3 4 1 2 3 4 5 4 6 6 5 3 4 5 3 2 1 2 4 3 3 3 6 10 13 14 16 16 16 15 15 14 14 13 12 12 12 13 13 13 14 13 12 11 10 9 8 7 7 7 6 6 5 5 5 5 6 6 5 3 4 6 6 5 5 5 5 3 1 2 2 3 3 4 4
3 2 2 3 1 5 5 3 3 2 4 2 3 3 1 3 3 4 5 3 2 1 3 3 3 1 1 3 2 2 2 2 3 2 4 4 2 1 1 3 3 5 5 4 6 9 12 14 15 16 16 16 16 15 15 14 13 13 14 14 14 14 14 14 12 11 10 9 8 8 7 6 6 6 5 6 6 6 7 6 5 5 5 7 6 6 7 7 7 4 4 4 4 5 5 5 5
2 1 0 1 3 4 3 3 2 4 2 1 1 5 1 3 2 3 4 2 1 2 2 2 2 1 1 3 3 4 2 0 2 1 1 2 1 2 3 4 5 6 6 6 6 8 11 14 15 16 16 16 16 16 15 15 15 14 15 15 15 15 15 14 13 12 10 9 9 8 8 6 6 6 6 6 7 7 6 6 6 6 7 7 7 7 8 10 8 6 7 6 7 7 7 6 6
4 3 3 2 3 2 1 2 1 4 1 3 2 4 1 3 2 2 2 2 1 2 2 2 1 2 3 6 4 2 1 1 1 4 5 3 4 4 4 5 7 7 7 7 7 8 10 13 15 16 17 17 17 17 16 16 16 16 16 16 16 16 15 14 13 12 11 10 10 9 8 7 7 7 7 8 8 7 5 5 6 7 8 8 8 7 9 11 10 10 9 8 7 8 8 7 7
5 6 5 3 2 1 1 1 1 0 4 4 4 4 0 3 3 5 5 4 2 3 3 2 1 2 4 6 5 4 3 3 4 6 5 4 4 3 5 6 7 7 8 8 8 8 9 12 15 16 17 17 17 17 17 17 17 17 17 17 17 16 16 15 14 13 12 11 10 9 8 8 9 9 10 10 9 7 4 4 6 8 9 9 9 8 9 11 12 12 10 8 7 8 8 8 8
5 6 4 3 1 2 3 2 3 3 5 4 6 3 1 4 5 5 5 2 1 1 2 2 2 2 3 4 4 7 7 9 7 5 4 3 3 3 4 6 8 8 8 9 9 9 9 11 14 16 17 17 18 17 18 17 17 17 17 17 17 17 17 16 15 14 13 13 11 10 9 10 11 10 11 11 10 8 6 6 7 8 9 10 10 9 9 11 13 12 10 7 6 7 8 8 8
6 5 3 3 2 3 2 1 3 4 3 2 5 3 3 5 5 3 3 2 1 2 2 2 2 2 2 3 4 7 8 11 7 4 4 4 3 3 4 4 7 8 8 9 10 10 10 11 13 16 17 17 18 18 18 18 18 17 17 17 17 17 17 17 16 16 15 15 13 12 11 12 12 12 13 13 11 9 8 8 9 10 10 10 11 11 11 12 11 11 10 6 5 6 6 6 6
7 4 2 3 2 3 2 3 3 3 2 1 3 6 8 6 4 3 2 4 1 1 2 5 2 0 4 7 8 9 8 10 8 5 5 6 5 5 5 4 6 7 9 10 11 11 10 11 12 14 16 17 18 18 18 18 18 18 18 17 17 17 18 17 17 18 17 16 15 13 13 13 13 13 14 15 13 11 11 12 11 11 11 12 13 14 14 14 12 12 9 5 5 5 5 5 4
6 2 1 2 2 3 4 3 3 3 2 0 4 8 9 5 3 3 2 3 2 2 3 6 4 4 5 8 10 10 8 10 8 7 6 7 6 6 6 5 6 6 8 10 11 11 11 11 12 13 15 17 18 18 18 18 19 18 18 18 18 17 18 18 18 18 18 17 16 15 15 15 15 15 15 16 14 14 13 13 12 12 12 13 15 15 16 14 13 12 8 5 4 4 4 3 2
4 1 0 3 3 2 2 3 4 4 4 2 4 6 7 5 2 1 2 3 5 6 2 6 3 4 5 6 10 11 9 10 9 7 6 6 6 7 7 6 7 6 7 9 11 11 11 12 12 13 14 16 17 18 19 19 19 19 19 18 18 17 17 17 17 18 18 17 17 16 17 17 16 16 17 17 16 15 13 12 12 13 13 14 16 16 15 13 12 11 8 5 5 4 4 4 4
3 2 2 3 1 2 3 3 5 5 5 2 1 3 6 5 2 2 3 3 6 10 3 3 1 3 2 4 8 10 9 10 10 8 6 5 5 7 8 8 8 7 8 8 10 11 12 13 13 14 14 15 17 18 19 19 19 19 19 19 18 17 16 16 16 17 18 18 17 17 18 18 18 17 17 17 17 15 13 12 12 12 12 13 14 15 13 12 11 10 8 6 6 6 6 5 5
3 2 4 1 2 2 2 3 4 4 5 1 1 3 6 3 1 2 3 4 7 9 2 3 1 4 4 7 11 13 12 11 10 9 8 7 7 8 9 10 9 8 9 9 9 11 12 14 14 15 15 16 17 18 19 20 20 19 19 19 19 18 16 16 16 17 18 19 18 18 19 19 20 19 19 18 17 16 14 12 11 10 11 11 12 13 12 11 10 9 7 7 7 7 6 6 5
3 4 3 1 2 1 1 2 2 2 3 3 2 5 4 1 1 3 4 5 9 6 3 3 5 7 6 8 8 8 8 9 9 10 10 8 9 12 12 11 10 10 10 11 10 11 12 13 15 16 17 17 18 18 19 21 21 20 20 20 19 18 18 17 17 17 19 19 18 20 21 20 21 20 20 19 17 16 14 11 10 9 10 10 10 11 11 9 9 8 7 8 8 7 6 6 5
3 5 3 1 4 3 1 3 2 3 3 4 4 5 1 1 2 4 4 4 7 7 7 7 6 5 4 5 6 7 9 10 9 10 12 12 13 15 16 14 12 12 12 13 13 12 12 13 15 16 18 19 19 19 20 21 21 21 21 21 20 19 19 18 18 18 19 19 19 21 22 21 21 21 20 20 18 17 15 11 10 10 9 10 10 10 10 9 8 8 8 9 8 7 7 6 6
3 4 4 2 2 2 2 2 1 3 3 4 5 3 1 4 2 3 5 6 10 11 12 12 10 10 11 14 16 17 18 16 14 14 16 16 17 17 17 16 14 14 14 14 15 15 14 14 15 17 18 19 20 20 21 21 22 22 22 22 21 21 20 19 19 19 19 20 20 22 24 22 21 21 20 20 19 18 15 12 11 11 10 10 10 10 10 9 9 9 10 10 9 8 7 7 7
2 2 4 2 1 1 3 1 2 1 4 4 2 1 1 3 4 2 5 8 13 15 17 18 17 17 20 22 22 22 23 22 20 19 19 18 18 18 18 17 16 15 15 15 16 16 17 17 16 17 18 19 20 21 21 22 22 23 23 23 23 22 21 21 21 20 20 21 22 23 24 24 23 22 21 20 19 17 15 13 12 12 12 11 11 11 11 10 11 11 11 10 9 9 8 8 7
1 2 3 1 2 3 3 2 3 1 3 3 2 2 3 2 6 5 4 7 13 16 22 24 22 22 23 23 21 22 25 25 24 23 21 19 20 20 19 18 17 17 16 16 16 17 18 19 18 18 18 19 20 21 22 22 23 23 24 24 24 24 23 22 22 22 22 21 22 24 24 24 24 23 22 21 19 17 15 14 13 14 14 13 12 12 12 11 12 12 11 11 10 9 9 8 8
3 2 2 3 4 4 6 6 8 6 3 6 6 6 7 5 9 10 5 9 13 12 20 26 27 27 24 20 17 17 18 19 22 23 23 22 22 22 21 20 20 19 17 15 15 17 18 19 20 19 18 18 20 21 22 22 23 23 24 25 25 25 25 24 24 24 23 23 23 24 24 25 24 23 22 21 20 18 17 15 14 15 15 14 13 13 13 13 13 13 12 12 11 10 9 9 9
6 4 2 6 6 6 13 13 14 12 7 5 6 7 9 10 13 13 8 11 11 9 15 20 27 32 28 21 19 20 20 17 17 20 22 23 23 23 22 22 22 19 16 15 14 15 17 18 19 20 19 19 21 22 22 23 23 23 24 25 26 26 26 26 26 25 25 25 25 25 26 25 25 24 23 22 21 20 18 16 15 16 16 16 15 14 14 14 14 14 13 13 12 11 11 10 10
5 6 4 7 5 5 12 14 17 16 9 6 7 9 11 14 14 13 11 9 7 12 18 20 26 34 32 28 25 25 26 22 19 19 21 22 23 23 23 24 22 20 17 16 16 15 16 16 17 18 19 20 21 22 23 23 23 23 25 25 26 27 27 28 27 27 27 27 26 27 27 27 26 25 25 24 22 21 19 18 16 16 17 17 17 15 16 15 15 15 14 14 14 13 12 12 11
4 6 10 11 7 4 11 15 17 16 12 9 9 8 11 14 13 14 12 8 12 19 23 23 28 34 34 32 29 28 28 26 24 22 22 23 23 24 24 23 21 19 18 17 16 15 14 14 15 16 18 21 21 22 22 23 24 24 24 25 26 27 28 29 29 29 29 28 28 28 28 28 28 27 26 25 23 22 21 19 17 16 17 19 18 17 17 17 16 15 14 15 15 14 14 13 12
5 5 10 15 13 8 12 18 17 16 13 10 9 10 13 13 13 16 14 17 27 31 28 28 30 32 33 33 31 31 29 27 25 23 23 23 24 24 24 23 21 19 19 18 17 16 16 14 14 14 16 19 21 22 23 24 25 25 24 24 25 26 27 28 29 30 30 30 30 29 29 29 29 28 27 26 24 23 22 21 19 18 18 20 19 18 18 18 17 16 16 17 17 15 15 15 13
8 5 6 12 14 12 15 18 17 15 13 14 15 13 13 11 11 13 17 28 34 32 29 29 28 28 28 29 28 27 26 24 22 22 22 23 24 24 23 23 22 20 20 20 19 20 19 17 16 16 16 16 19 21 23 24 25 26 26 26 26 26 26 27 28 28 29 31 32 31 31 30 30 30 29 27 25 24 23 23 21 19 20 21 20 20 19 19 18 17 17 18 18 17 17 16 14
5 4 4 5 9 13 16 18 18 20 20 20 17 15 15 17 16 13 23 32 30 26 26 25 23 23 23 23 23 22 22 21 20 21 22 23 24 24 23 22 20 19 20 20 21 21 21 21 20 20 19 17 18 20 23 24 25 26 27 27 27 27 27 27 26 26 27 29 31 33 32 32 32 31 30 28 27 26 25 24 23 21 21 22 22 21 21 20 20 19 19 20 20 19 18 17 16
3 4 6 7 10 15 18 19 22 25 25 21 12 13 18 21 16 12 24 27 23 25 25 23 22 22 22 21 23 22 22 20 20 21 22 23 23 22 21 20 18 17 18 18 19 20 20 21 22 22 22 20 19 19 21 23 25 26 27 28 27 27 27 26 27 27 26 26 28 31 33 33 33 32 31 30 29 28 27 26 25 23 22 23 24 23 22 21 21 21 20 21 22 21 19 18 18
7 10 12 12 14 19 22 22 28 27 23 22 11 11 22 18 6 8 22 23 22 27 26 23 22 22 23 22 23 22 21 20 20 20 17 17 17 16 16 15 15 15 15 16 17 18 18 20 21 22 22 21 20 20 20 22 24 26 27 27 28 28 28 27 28 28 27 26 26 27 29 31 33 33 32 31 31 30 29 28 27 25 24 24 25 25 24 23 22 22 22 22 23 22 20 20 20
10 12 12 15 15 21 25 22 28 21 13 20 13 11 19 10 3 13 24 22 22 25 23 21 20 22 23 21 21 20 20 19 18 15 9 8 7 7 9 10 11 12 13 14 14 14 16 17 18 19 20 20 21 20 19 20 22 24 26 27 28 28 28 28 29 28 28 27 26 26 26 28 30 32 32 32 32 31 31 29 28 27 25 25 26 26 26 24 23 23 23 23 23 23 22 22 23
12 9 6 12 9 13 23 19 23 15 6 14 9 4 11 5 8 18 22 20 16 17 20 23 25 27 24 20 20 17 14 12 10 7 2 0 1 3 5 5 8 10 11 13 12 11 11 13 14 15 17 18 19 19 18 18 19 21 24 26 28 28 28 29 29 29 29 27 27 26 26 26 27 28 30 31 31 31 31 30 29 28 26 26 26 26 27 26 25 25 25 24 25 26 25 25 25
11 5 1 6 6 6 16 14 14 9 5 11 11 3 8 7 14 18 17 17 16 19 24 28 30 29 26 24 19 9 5 4 3 5 4 2 2 3 4 4 6 8 9 11 11 11 9 9 10 11 13 14 15 16 17 17 17 19 21 24 26 27 27 27 27 28 28 28 27 27 26 26 26 27 28 30 30 30 30 30 29 27 26 27 26 26 26 27 27 27 26 26 26 27 27 26 27
6 2 2 2 2 5 12 10 6 2 3 11 12 3 7 7 14 17 15 16 20 24 27 31 30 27 25 20 10 5 9 8 7 7 5 3 2 3 5 7 8 9 10 11 10 10 8 6 7 8 9 10 12 13 14 15 16 17 19 22 23 25 25 25 25 26 26 27 27 27 27 26 26 27 28 30 30 30 30 30 29 27 27 27 27 26 26 27 28 28 27 27 28 29 29 28 27
2 1 2 2 3 4 11 13 6 3 2 7 7 3 5 6 14 17 17 19 21 24 29 31 29 24 18 9 6 9 10 9 7 7 6 6 7 8 10 11 12 12 13 13 11 9 7 3 3 5 6 7 8 10 12 14 15 16 18 19 21 22 23 23 23 23 23 25 26 27 27 27 27 27 28 30 30 31 30 30 29 28 28 28 27 26 27 28 28 29 29 28 29 30 30 29 29
2 2 4 3 3 3 6 9 5 4 4 1 2 2 4 5 10 15 19 23 24 24 28 29 26 18 11 12 12 12 11 9 8 10 10 10 11 12 13 14 14 14 14 13 11 8 6 5 2 2 3 4 6 7 10 12 14 15 16 17 18 19 20 21 21 20 21 23 25 26 27 27 27 28 29 29 30 30 30 31 30 29 29 28 27 28 28 29 29 30 30 30 29 30 31 30 30
4 1 3 4 4 3 3 6 5 4 5 2 3 3 6 7 9 16 20 24 27 24 24 26 20 8 12 15 15 15 14 14 14 14 12 11 11 11 11 10 9 9 8 8 8 7 7 7 6 5 4 4 4 5 7 10 12 14 15 15 16 17 18 18 18 19 19 20 22 24 26 27 27 28 28 29 30 30 31 31 31 30 29 29 29 30 30 31 31 31 32 31 30 30 31 31 30
4 4 3 4 4 3 4 5 3 1 0 3 4 6 9 9 11 18 25 26 23 22 23 19 7 13 17 17 20 19 19 19 18 15 11 9 8 8 7 6 4 1 2 4 5 7 8 8 7 6 6 5 4 4 5 7 10 13 14 14 15 15 16 17 17 18 18 19 21 22 23 25 26 27 28 28 29 30 31 31 31 31 31 31 31 32 32 33 33 33 33 32 31 31 31 31 30
7 7 4 4 5 5 6 7 4 3 3 5 7 7 7 8 9 15 26 26 18 20 17 6 15 20 21 22 23 22 22 22 18 15 12 10 9 9 8 8 6 3 4 5 6 6 7 7 6 6 5 5 5 5 4 5 7 9 12 13 14 14 15 16 16 16 17 19 20 21 22 23 24 25 26 27 28 29 30 31 31 31 32 33 32 33 34 34 34 34 34 33 33 32 32 32 31
6 6 5 5 5 5 6 6 6 2 1 6 7 4 5 7 7 13 23 20 14 11 5 17 20 20 23 24 24 24 25 22 19 18 17 15 14 13 12 12 10 8 7 6 5 5 5 5 5 5 6 5 6 6 5 4 4 5 6 9 10 11 13 14 15 15 16 18 19 20 20 21 22 23 24 25 27 28 29 29 30 31 32 33 33 33 33 34 34 34 34 34 33 33 33 34 34
6 6 5 5 4 5 6 6 7 3 0 5 4 4 6 7 8 17 17 9 7 4 15 18 18 21 22 24 25 25 24 22 22 22 22 22 21 21 20 20 19 16 15 12 10 10 9 8 8 7 7 5 5 5 5 5 4 3 2 3 4 6 8 10 11 13 15 16 18 19 19 20 21 21 22 23 25 26 27 27 28 29 31 32 33 34 34 34 34 34 35 35 34 34 34 35 36
6 5 3 4 4 3 5 6 5 3 0 4 6 5 7 8 11 15 8 10 9 13 19 17 19 23 22 23 24 24 25 25 25 26 26 26 26 27 27 28 28 26 26 25 24 23 22 21 19 16 12 10 9 8 6 5 4 2 2 2 1 1 2 3 4 6 8 10 13 14 16 17 18 19 20 21 22 22 23 25 26 28 29 31 32 34 34 34 35 35 36 36 35 35 35 36 38
4 4 3 5 4 2 4 6 6 4 2 3 5 5 5 7 9 7 10 15 17 20 23 22 23 24 24 24 24 25 26 27 27 27 27 28 28 30 31 32 32 31 32 33 34 33 33 32 30 27 24 20 18 16 13 10 6 2 0 1 2 3 2 3 3 4 4 5 6 8 10 12 13 15 16 18 19 20 20 22 24 26 28 29 31 33 34 34 35 36 36 36 36 36 37 37 38
3 3 4 4 4 3 5 4 5 5 4 1 2 5 4 5 8 1 7 11 16 19 21 23 22 23 25 24 25 26 26 27 28 28 29 30 30 31 33 33 33 34 35 35 35 35 35 35 34 33 31 29 27 25 22 18 14 10 6 2 1 2 2 2 1 1 1 1 2 3 4 5 7 8 10 12 13 15 17 19 21 24 25 27 30 32 33 34 34 35 36 36 37 37 38 38 39
4 3 5 6 6 5 4 3 4 5 5 3 4 4 5 5 7 5 4 6 9 12 15 17 18 20 23 24 24 24 25 27 27 28 29 30 31 32 33 33 33 34 34 35 34 34 33 33 32 31 31 30 29 28 26 24 21 18 15 11 7 5 4 5 6 6 5 5 4 3 2 2 3 4 5 6 8 10 12 15 18 21 23 25 27 30 31 32 33 34 34 35 36 36 37 38 40
3 4 4 5 5 3 1 3 3 2 2 3 3 1 6 4 6 7 5 7 5 8 10 11 15 19 21 23 22 22 24 26 28 28 28 30 31 32 33 33 33 33 32 32 32 32 31 30 30 29 29 28 28 27 25 24 23 21 19 16 13 10 8 8 8 9 8 8 8 7 6 4 3 2 2 3 5 6 8 10 13 17 20 22 24 27 29 30 31 31 32 34 35 35 36 39 40
3 5 4 5 5 3 2 3 1 3 2 5 1 4 5 4 6 7 6 9 5 6 6 8 13 18 20 21 20 22 23 24 27 29 28 29 30 31 32 31 31 30 29 28 29 29 29 28 27 26 26 26 25 25 24 23 23 22 20 18 16 14 12 10 8 9 9 10 10 9 9 8 6 5 4 3 3 4 6 7 10 12 15 19 21 24 26 28 29 29 31 32 33 34 35 38 39
5 5 5 5 4 4 3 4 1 2 2 5 5 4 3 5 5 2 7 7 4 5 5 6 11 15 19 20 19 21 22 22 25 27 27 28 28 29 29 29 28 26 25 26 26 26 26 25 24 23 24 24 23 23 22 22 22 21 20 19 18 17 15 12 10 9 10 11 12 11 10 10 9 8 7 6 5 5 5 6 7 9 11 14 17 21 23 25 27 29 30 31 32 34 35 36 38
4 4 3 3 2 2 2 4 2 1 2 4 7 4 3 5 5 1 5 4 5 5 4 6 11 15 17 17 18 19 20 22 23 25 26 26 26 27 27 26 24 23 23 23 23 23 23 23 22 22 23 23 22 21 21 21 20 20 19 19 18 18 17 15 13 12 11 12 13 13 11 10 10 9 8 7 6 6 6 6 6 7 9 11 13 16 19 22 25 27 29 30 31 33 34 35 37
4 4 3 5 5 3 3 2 3 3 2 6 8 7 6 3 5 3 3 3 8 9 6 7 11 16 17 16 16 17 19 21 22 24 25 24 24 24 23 23 22 21 20 19 20 20 21 21 21 21 21 21 20 20 19 19 19 19 19 19 18 17 17 15 15 14 14 14 13 13 13 11 10 10 9 9 9 8 8 7 7 7 8 9 11 13 15 17 20 23 26 28 30 32 33 34 36
5 5 4 4 4 4 5 4 4 2 4 7 6 6 7 4 5 3 3 4 6 11 10 10 11 15 17 16 15 17 19 21 22 23 23 22 22 21 20 19 18 17 16 16 17 17 18 19 18 18 18 19 19 18 18 18 18 18 18 18 18 18 17 16 16 15 15 15 15 14 14 12 11 10 9 10 10 11 11 10 9 9 9 9 10 11 13 14 16 19 22 25 28 30 32 33 35
5 4 5 4 3 3 2 2 0 2 6 6 3 3 4 6 5 1 5 7 4 9 11 14 15 17 18 16 15 16 18 20 21 21 21 20 19 18 17 15 15 14 14 14 14 14 15 16 15 15 16 17 17 16 17 17 17 17 17 17 17 17 17 16 16 15 15 15 15 14 14 14 14 13 12 11 11 11 12 12 12 12 11 11 11 12 13 14 15 17 19 22 24 27 29 31 34
4 4 4 3 2 1 3 3 1 3 5 5 3 1 1 5 3 4 5 6 9 18 21 21 20 20 18 16 15 16 17 19 19 18 18 17 17 15 14 13 12 12 12 12 12 13 14 14 14 13 14 14 14 14 15 15 16 16 15 15 15 15 15 16 16 15 15 14 14 14 14 14 14 14 14 14 13 12 12 12 13 12 12 12 13 13 14 14 15 16 17 19 22 24 25 28 31
5 5 5 5 4 3 3 3 3 3 4 5 4 1 2 3 1 3 5 9 16 23 24 23 22 20 18 17 16 17 18 17 17 16 16 15 14 13 11 10 10 10 10 10 10 11 12 13 13 12 12 12 12 12 12 12 13 13 13 13 13 13 14 14 15 15 15 15 15 15 14 14 14 13 13 14 14 14 14 13 13 13 13 13 14 14 14 15 16 17 18 19 20 21 23 26 28
3 3 4 2 4 5 2 3 4 3 3 4 3 2 2 3 2 3 7 11 16 19 20 21 20 18 17 17 16 16 17 16 15 14 13 12 11 10 9 8 8 9 9 9 10 11 12 12 11 11 11 10 9 9 9 10 10 10 10 11 11 11 12 12 13 14 15 16 17 16 16 16 14 14 13 13 13 14 14 14 14 14 14 14 14 15 15 15 16 18 19 20 21 20 21 24 26
0 3 2 4 4 5 1 4 2 1 3 4 3 3 2 2 2 2 5 8 9 11 13 16 16 15 16 16 16 16 15 14 13 11 11 10 9 8 8 8 8 8 8 9 10 11 12 11 11 10 10 9 9 9 8 8 8 8 8 9 9 10 11 11 12 13 14 15 16 16 17 17 17 16 16 16 15 15 15 15 15 15 15 14 14 14 15 15 16 17 18 20 21 21 22 23 24
2 2 4 3 1 3 2 1 2 3 5 4 3 6 4 2 2 1 4 5 5 5 7 11 12 14 15 16 16 16 14 13 11 10 9 9 8 7 6 6 6 7 8 9 10 10 11 11 11 10 10 10 10 10 10 9 9 8 7 7 7 8 9 10 11 12 13 14 15 15 16 17 18 18 19 19 19 19 18 17 17 16 16 16 16 16 16 16 16 17 17 18 20 21 23 24 24
3 3 2 1 1 1 1 1 2 4 5 3 5 7 5 4 4 4 5 6 7 6 6 7 9 13 16 16 16 15 14 12 10 10 9 8 7 5 4 4 5 6 7 8 8 9 9 10 10 11 12 12 12 12 12 12 12 11 10 9 8 8 8 8 10 11 12 14 15 16 17 17 18 19 19 20 21 22 22 22 21 20 19 18 18 18 18 18 18 18 18 18 19 20 22 24 25
3 2 2 1 3 3 2 2 3 3 4 4 5 5 4 4 4 7 9 10 9 8 6 6 10 15 17 17 16 15 13 12 11 10 9 7 5 2 2 3 3 4 5 7 8 8 10 11 12 13 14 15 15 16 16 16 16 15 15 15 14 14 14 14 14 15 15 14 15 15 16 17 18 19 20 21 22 23 24 25 25 25 24 23 21 20 20 20 19 19 19 20 20 20 22 23 23
2 2 2 1 1 1 1 2 2 3 3 4 5 5 4 3 1 5 9 9 9 10 8 7 11 16 17 17 16 14 13 12 11 9 7 5 3 2 2 2 2 3 4 6 7 8 10 11 12 13 14 14 15 16 17 17 17 18 18 18 19 20 20 21 21 21 21 20 20 19 19 18 18 19 20 21 22 23 24 25 26 26 27 27 26 24 22 22 21 21 20 20 21 22 23 23 23
4 2 3 3 2 0 2 4 2 3 3 3 3 5 4 3 2 2 6 7 8 12 12 10 14 19 19 18 16 14 13 11 10 8 6 4 3 2 2 2 2 3 4 5 6 8 8 10 11 11 13 14 15 15 16 17 18 19 20 20 22 22 23 24 24 25 26 26 27 27 26 26 24 23 23 22 22 23 23 25 26 27 28 28 28 28 27 25 24 23 22 21 21 23 24 25 25
Wind_Direction
306 312 311 302 318 337 14 17 17 341 59 65 300 103 274 280 123 52 60 86 77 138 14 353 270 269 290 281 245 255 249 214 189 161 190 194 140 118 353 264 252 263 272 201 200 199 199 202 206 208 209 211 209 211 215 217 221 214 199 195 190 186 181 177 177 178 178 177 176 175 175 182 190 200 210 216 215 212 200 187 181 173 152 137 134 149 155 157 172 168 164 253 230 196 168 158 157
320 323 309 281 325 359 353 19 59 353 44 38 311 129 255 336 52 77 117 128 160 199 351 4 345 258 267 274 275 283 266 234 213 184 161 163 136 121 81 290 255 236 247 228 212 208 204 201 205 208 210 212 211 212 214 217 220 214 207 203 196 192 188 186 187 187 186 183 182 182 188 198 205 217 219 211 202 192 183 177 175 175 160 147 150 167 165 174 190 191 265 269 249 222 207 196 195
339 335 281 244 35 3 336 30 88 67 62 76 284 277 17 44 74 151 150 140 154 25 15 32 6 314 271 282 267 234 254 224 202 180 145 157 152 146 278 276 249 232 237 238 223 216 213 207 205 208 211 214 214 213 214 216 218 217 215 211 205 201 197 196 196 195 193 190 190 194 200 211 227 231 216 199 190 178 176 175 174 170 162 157 166 183 186 197 205 233 274 272 264 245 230 225 220
74 76 111 168 59 10 7 56 130 112 76 156 266 302 358 105 120 161 146 123 130 16 37 71 349 280 292 292 273 254 267 133 169 263 250 199 225 272 268 247 241 228 222 235 230 223 220 216 212 210 212 215 218 218 217 218 219 219 219 218 215 210 207 205 204 202 199 197 198 203 208 219 227 222 208 210 203 182 178 181 179 174 170 173 180 189 202 211 219 251 270 269 265 255 246 243 242
114 103 93 83 50 2 72 59 94 91 278 189 133 290 292 115 77 18 59 119 129 34 52 75 326 279 278 273 273 257 225 166 219 293 295 287 294 286 264 241 238 223 215 227 232 232 224 221 220 216 216 217 220 222 223 223 222 222 221 222 222 219 216 213 212 209 205 204 206 207 215 220 212 207 206 217 213 188 183 191 188 186 180 183 190 198 214 221 235 257 267 268 263 257 255 252 256
111 103 90 65 31 328 77 59 326 312 245 168 137 259 265 92 78 33 47 113 111 46 57 76 356 305 281 276 269 248 230 246 272 292 299 305 307 293 269 252 241 227 214 218 228 235 229 224 223 222 222 222 223 224 226 227 226 226 224 224 225 224 222 220 217 213 211 211 211 212 218 219 208 205 209 219 216 194 206 217 197 197 193 193 198 213 230 239 253 265 269 267 259 254 256 258 262
94 80 53 32 0 358 92 152 239 236 250 166 146 208 148 85 72 41 28 73 106 60 72 62 344 318 288 301 271 262 257 254 268 282 290 307 325 315 281 263 249 238 219 215 224 232 234 230 225 225 226 226 227 226 227 228 229 229 229 227 226 225 224 223 221 217 216 216 214 216 215 211 207 208 216 224 221 213 236 239 217 217 216 213 214 226 242 256 267 276 276 270 258 251 255 260 263
70 52 34 50 31 23 82 251 249 207 258 203 150 135 107 88 66 39 343 345 247 207 137 177 336 9 305 308 281 291 269 245 254 264 276 294 318 335 312 284 258 247 233 222 223 228 234 236 230 228 228 229 230 231 230 229 230 230 231 231 228 226 225 223 222 221 221 222 220 220 211 204 206 210 223 229 223 227 244 244 233 233 235 235 239 244 254 265 275 281 284 279 260 251 254 256 258
67 43 35 69 45 12 355 312 286 244 252 254 115 94 89 90 87 82 318 323 324 250 205 197 197 3 294 302 290 301 278 243 247 257 278 288 291 323 325 306 272 255 245 235 228 227 229 237 239 234 231 232 233 234 234 233 232 232 232 232 231 228 227 225 222 223 224 225 224 222 211 205 208 209 222 229 224 233 248 253 249 244 243 243 246 252 258 265 275 280 285 285 264 253 250 248 243
64 44 38 78 59 12 337 306 290 297 281 322 76 96 93 88 98 91 296 305 327 296 215 193 203 233 276 297 292 303 284 244 241 257 280 286 285 309 324 315 288 270 251 245 239 233 230 234 240 241 238 236 236 236 236 236 236 235 233 233 233 231 229 227 224 225 227 226 225 221 211 207 211 211 221 229 228 237 251 262 264 261 259 254 250 250 253 258 265 270 275 272 259 249 235 221 196
39 348 343 64 46 6 283 287 285 284 289 326 63 90 96 88 74 20 335 312 323 331 222 190 228 268 275 275 284 302 282 243 244 265 278 276 279 297 318 318 294 280 261 252 247 241 234 234 237 242 243 242 241 240 239 239 239 238 237 236 234 232 229 227 225 227 230 230 227 221 212 209 213 214 221 229 232 241 255 267 269 267 263 258 253 251 251 251 249 251 254 246 232 210 195 184 173
13 333 49 78 117 218 225 275 286 291 321 354 50 91 99 91 65 325 354 341 323 337 322 190 282 310 285 264 285 297 274 250 253 264 264 262 273 290 310 316 300 283 269 257 251 247 239 236 236 238 241 244 245 245 243 241 242 241 241 240 239 238 234 230 227 228 233 233 229 221 213 212 215 217 224 232 237 249 262 269 270 263 254 252 253 252 250 245 238 237 237 225 205 186 179 177 180
352 9 69 113 216 241 267 281 293 324 344 348 210 125 109 101 104 279 324 324 313 329 336 149 334 315 285 277 286 285 271 264 263 260 254 255 273 288 302 310 302 283 272 264 257 252 246 241 236 236 238 241 244 245 245 244 245 244 243 244 243 243 241 235 231 230 232 233 229 220 214 215 218 223 231 236 242 255 266 271 271 261 248 247 253 253 249 242 234 232 225 209 194 181 178 182 190
359 5 80 191 309 328 283 287 310 16 308 268 184 142 122 148 197 268 290 304 303 302 239 241 304 305 292 285 286 287 288 288 276 262 255 257 274 288 298 303 297 281 274 271 263 256 251 248 241 237 236 238 240 242 243 244 245 246 244 245 245 244 242 238 234 231 230 231 226 219 216 218 223 228 234 239 246 257 267 272 268 258 248 246 251 252 248 241 234 229 214 200 191 183 185 190 197
3 355 73 114 341 335 258 230 203 117 261 245 171 169 152 328 263 257 252 268 289 284 274 289 294 283 284 280 278 290 304 303 285 266 263 268 275 286 294 295 291 281 273 272 269 262 254 250 247 241 238 236 238 240 241 242 244 246 245 245 245 244 242 239 234 230 229 228 224 218 217 220 225 230 236 241 248 257 265 269 262 255 248 245 247 247 243 235 228 221 207 199 194 188 192 196 201
10 357 61 48 318 335 256 227 114 85 275 239 176 193 24 356 342 221 238 263 275 278 277 280 277 271 272 274 286 294 292 289 281 274 272 278 283 289 293 292 287 281 274 270 270 268 260 252 249 246 243 239 238 239 240 241 243 244 244 244 243 243 242 239 235 231 229 227 223 217 217 220 224 230 236 242 249 256 261 261 255 251 245 240 240 241 236 228 222 214 205 201 197 193 197 202 207
41 40 66 354 266 216 248 255 30 74 267 267 209 219 78 341 349 241 251 268 271 283 285 282 280 276 275 282 298 299 288 284 279 277 278 283 288 291 294 293 287 283 279 271 268 267 264 257 251 248 247 244 243 241 241 241 242 243 243 242 241 242 241 239 236 233 232 229 224 220 218 220 224 230 237 245 251 255 257 254 248 244 240 236 235 236 232 224 217 212 207 205 201 199 202 207 212
102 84 100 268 229 204 220 228 320 271 238 295 313 13 45 352 343 331 283 264 270 286 289 287 286 283 283 290 300 294 286 283 279 278 279 282 286 289 293 293 289 288 285 275 267 263 263 263 257 251 248 247 246 245 244 243 242 242 241 241 240 240 239 237 236 234 233 231 226 223 221 222 226 232 239 247 253 256 255 250 243 238 236 233 231 234 231 222 217 214 211 210 207 206 208 212 218
173 129 131 231 214 234 284 309 330 343 302 317 352 3 0 330 326 331 309 273 277 282 285 289 290 291 295 298 299 299 299 291 284 281 279 281 283 287 291 291 293 293 289 282 271 263 261 261 261 256 250 248 249 248 247 246 244 242 240 240 241 240 238 236 235 234 234 232 229 227 225 226 231 236 242 249 254 256 255 248 239 233 232 232 230 232 232 225 220 218 214 215 214 212 214 218 225
202 168 159 242 223 266 295 308 323 331 331 347 1 338 322 308 315 319 296 282 283 264 270 283 289 293 299 301 297 301 308 302 291 285 280 280 280 282 287 291 296 296 293 287 275 264 258 257 259 261 257 251 250 250 249 248 247 244 242 240 241 241 239 237 236 235 234 233 231 230 231 233 237 241 245 249 252 254 253 248 238 231 231 231 230 230 233 229 222 221 218 218 219 215 216 222 229
189 169 187 235 232 278 284 297 312 317 330 340 332 325 313 307 312 303 289 295 282 257 262 271 281 290 295 296 296 298 301 300 295 289 284 282 281 283 287 291 297 297 294 286 278 272 268 265 262 261 261 257 252 251 251 251 250 247 244 241 241 241 240 239 237 236 235 234 232 232 234 237 240 243 245 248 251 252 252 250 241 234 232 231 231 230 233 232 226 225 221 221 222 216 216 223 228
184 202 214 229 244 268 276 292 304 304 312 317 319 319 304 305 303 288 285 280 268 269 275 278 281 287 291 292 295 296 295 295 294 292 288 287 287 287 289 293 296 296 295 291 290 289 284 281 274 264 260 258 257 254 252 253 253 250 248 246 243 241 240 240 238 237 236 236 235 234 235 237 240 242 244 247 249 251 252 251 246 239 235 233 234 233 234 235 231 227 222 224 226 218 217 222 227
215 250 230 235 245 255 280 293 300 300 300 300 302 297 296 303 296 287 278 268 277 284 284 284 284 286 289 290 290 291 290 291 291 292 291 290 290 290 292 295 296 297 297 296 299 299 294 292 288 277 266 261 259 257 255 252 252 252 251 250 248 246 243 241 239 239 238 238 237 236 237 238 240 242 243 246 248 251 252 252 248 241 239 237 236 236 237 238 234 228 222 226 229 222 220 222 227
214 256 248 244 254 266 286 295 301 302 294 291 297 294 289 286 285 291 284 280 288 295 292 289 288 288 288 288 288 288 289 289 290 294 295 292 292 293 293 294 295 297 296 298 301 299 297 296 292 286 281 274 266 261 257 255 254 253 253 251 250 250 247 245 243 242 241 240 239 238 239 240 241 243 244 246 248 249 251 253 250 243 240 240 239 237 239 240 237 231 225 229 232 228 224 224 227
218 246 264 270 285 288 295 299 298 296 290 290 294 285 275 272 276 282 280 287 300 307 304 298 295 291 285 284 289 294 292 289 289 295 298 296 294 293 291 291 292 294 296 302 303 299 299 296 289 284 284 283 278 267 260 257 255 254 254 253 252 252 251 250 248 245 245 244 243 241 240 240 242 245 247 248 249 250 251 253 253 248 243 241 241 239 239 241 240 234 230 231 234 231 229 227 228
304 319 320 320 309 303 304 302 293 288 284 282 282 276 273 274 280 277 276 290 310 312 306 301 297 291 284 284 291 296 295 293 297 301 305 300 295 291 289 286 287 292 297 301 301 300 300 294 288 285 285 285 282 273 265 260 256 255 255 256 256 256 255 256 254 250 249 248 248 245 243 243 243 245 248 250 252 253 253 253 254 252 246 242 242 241 240 241 241 238 233 233 236 234 231 230 231
331 338 330 312 304 306 302 295 288 285 282 274 255 262 272 271 276 270 279 298 313 306 304 302 296 290 289 291 293 296 299 307 313 312 311 302 295 290 283 274 276 284 290 293 298 300 297 291 288 287 285 284 282 278 272 264 258 256 256 257 257 257 258 258 258 256 255 253 252 251 249 248 246 245 248 250 252 253 254 254 254 255 250 245 244 243 241 241 241 240 235 234 238 238 234 232 233
332 337 333 307 309 308 294 286 284 281 278 267 236 245 275 274 203 249 277 305 313 303 304 305 299 294 295 297 299 305 312 318 318 316 318 309 299 281 266 259 261 265 268 270 278 286 286 287 287 287 286 284 281 280 277 270 264 259 256 255 255 256 258 258 259 259 258 258 256 254 254 253 249 247 249 252 252 253 254 254 254 255 253 248 245 245 243 241 241 240 237 233 236 237 234 233 235
328 328 334 303 324 310 285 279 277 266 255 261 216 226 288 268 231 254 281 306 313 307 305 305 301 299 302 309 312 319 325 321 316 322 341 219 191 204 229 241 249 250 253 254 253 262 275 285 286 286 286 284 282 281 280 275 268 263 259 256 255 254 255 256 258 259 260 260 259 257 257 256 253 252 253 254 254 254 255 255 255 256 256 250 245 245 245 243 241 241 238 234 234 236 234 233 234
320 317 134 297 343 308 278 280 279 267 235 224 172 160 281 250 255 272 296 305 311 312 305 302 299 299 306 315 319 334 14 24 44 58 85 114 137 183 215 226 242 248 255 258 258 262 273 291 292 287 288 286 284 283 279 276 270 265 262 259 257 255 255 255 256 258 260 260 260 260 260 259 258 257 257 256 256 256 256 257 256 257 258 252 246 245 247 246 245 244 242 237 235 237 236 235 236
301 322 128 282 318 279 286 296 293 306 197 185 161 209 261 253 274 285 299 299 305 305 299 297 297 304 315 321 331 55 70 68 71 63 56 26 344 283 273 263 261 260 264 271 276 274 271 290 303 294 295 293 287 284 282 279 273 268 264 261 258 257 256 255 256 257 258 258 259 260 260 260 260 259 259 258 257 257 257 258 259 260 261 255 248 249 250 250 249 246 244 240 237 238 239 238 238
285 296 301 284 196 259 299 301 276 199 191 170 157 236 259 267 273 279 295 296 297 295 291 293 301 317 336 2 79 90 72 68 61 41 26 354 324 306 297 288 283 277 276 279 281 279 265 261 302 299 298 294 288 284 280 276 272 267 263 262 260 258 257 256 256 255 255 255 256 258 259 258 258 258 258 258 258 258 259 260 260 262 262 257 253 253 253 254 253 250 246 242 239 240 241 241 240
315 192 248 260 224 260 302 308 296 155 132 183 214 248 272 276 262 271 293 297 295 292 288 294 308 331 24 77 90 82 67 57 42 27 11 346 326 314 306 299 294 285 279 273 268 261 239 213 210 257 264 271 276 273 272 269 267 263 260 259 257 256 256 256 256 254 253 252 254 255 256 256 255 255 256 257 258 259 260 261 261 262 261 259 259 259 256 256 257 255 251 246 242 241 243 244 242
304 227 225 243 235 242 274 304 325 100 111 240 252 235 248 265 272 275 286 291 291 289 292 304 319 11 82 86 80 69 58 47 35 25 9 349 330 321 316 308 299 286 271 256 246 227 208 200 192 193 202 219 238 243 251 256 257 257 256 255 253 252 252 253 254 253 253 252 252 252 252 253 254 254 255 256 258 259 260 260 261 261 260 260 263 262 259 257 256 256 254 251 246 243 243 245 245
244 244 248 264 253 251 264 275 292 55 27 255 259 255 253 268 279 276 278 280 281 287 300 316 1 96 95 84 78 69 61 55 44 34 23 7 355 350 347 342 332 292 191 187 194 193 193 191 188 192 197 201 203 205 220 236 245 250 252 251 250 249 248 249 250 251 252 252 251 251 251 252 253 255 257 257 259 259 259 260 260 261 260 261 263 261 259 257 255 255 255 254 250 246 245 246 246
224 238 241 254 259 269 263 257 265 292 304 270 257 256 257 267 271 273 277 281 289 300 312 29 93 96 88 83 79 74 70 64 57 55 49 41 35 33 34 37 46 80 120 145 162 173 178 179 187 190 181 173 158 157 178 204 223 235 243 247 249 250 250 250 251 251 252 252 252 252 251 252 252 254 256 258 260 260 260 260 261 261 261 261 261 259 259 259 259 258 257 256 253 249 245 243 243
237 252 258 254 250 267 265 265 275 286 310 259 251 266 278 276 276 273 279 292 311 315 43 93 94 86 84 83 78 75 74 70 70 72 69 67 66 65 66 66 71 85 102 120 134 137 141 148 158 149 139 139 136 133 137 150 167 191 215 229 236 240 243 246 248 249 251 252 253 253 253 254 254 255 256 258 259 260 261 261 261 261 260 260 260 261 262 262 262 260 259 257 254 250 247 244 242
242 237 242 255 246 256 260 266 278 291 272 259 291 354 302 286 281 282 292 330 353 69 99 95 90 85 82 81 79 78 79 79 80 78 76 76 75 75 76 76 76 76 79 80 80 80 78 80 87 94 100 93 89 95 96 99 101 105 137 190 210 223 229 233 237 240 244 247 250 252 254 255 255 256 258 259 261 262 263 263 262 261 261 261 261 261 261 260 260 259 258 256 254 252 249 247 244
255 247 237 263 266 287 290 292 311 356 58 270 319 333 292 285 278 293 340 72 72 85 98 96 94 89 81 80 80 82 82 80 79 77 77 77 77 78 79 78 76 75 76 75 74 74 71 69 69 71 72 64 57 53 50 58 71 81 85 92 121 213 229 239 242 241 243 245 248 250 253 255 256 257 258 259 260 262 263 263 263 262 262 262 261 260 259 259 258 258 257 256 255 252 249 246 244
269 262 261 272 291 345 289 299 334 344 276 252 301 300 290 285 278 332 57 95 90 86 92 91 93 91 87 86 83 83 82 78 79 78 78 79 81 82 82 81 80 79 79 77 75 72 71 69 68 68 68 64 61 56 50 47 46 45 62 198 220 232 242 257 261 261 260 256 251 249 249 250 251 252 252 253 253 254 256 258 260 261 262 262 262 261 260 260 260 259 259 259 256 252 248 246 245
286 221 210 250 278 247 233 280 332 333 318 328 8 327 299 257 254 323 80 96 90 90 89 85 89 91 91 90 86 85 83 81 81 81 81 81 81 82 83 83 82 81 79 77 75 73 71 70 68 67 66 65 63 61 59 57 56 53 51 53 234 238 246 257 255 281 287 285 267 247 246 242 239 239 239 241 243 245 247 249 252 255 257 259 260 261 261 262 262 262 261 261 259 256 253 251 248
306 240 211 221 234 238 240 327 8 20 338 325 48 3 293 255 251 235 144 102 83 88 86 85 89 89 91 88 85 87 87 87 84 83 85 85 84 84 84 83 80 79 78 77 77 75 73 71 69 67 65 63 61 60 60 59 60 59 58 59 58 52 34 29 37 35 21 9 6 355 322 278 250 238 226 224 229 235 239 242 245 248 251 254 257 259 261 261 261 261 261 261 260 260 258 254 251
289 251 200 180 162 145 102 47 36 60 262 291 69 73 275 271 258 246 156 115 100 91 84 87 89 87 90 88 87 89 88 91 92 88 86 87 88 87 84 82 79 77 76 76 76 74 72 69 67 64 62 61 59 58 57 56 57 58 58 59 59 57 47 36 33 32 30 24 18 15 11 5 345 305 273 245 229 227 229 232 238 243 247 251 254 257 259 260 261 261 262 262 261 261 259 255 253
233 236 147 112 104 118 159 116 104 228 244 320 334 181 258 276 252 244 136 113 111 101 91 91 93 92 93 93 92 92 89 91 94 93 89 87 87 86 84 81 77 75 74 72 71 69 67 64 62 60 58 58 57 55 54 54 54 55 56 56 57 57 52 45 35 32 37 39 34 29 22 21 20 12 351 324 289 260 244 235 235 237 241 246 250 254 257 260 261 261 261 262 261 260 258 257 256
232 218 145 119 133 168 173 134 180 262 10 318 268 187 237 273 265 224 123 128 157 143 129 113 103 98 96 97 96 95 95 92 91 93 91 89 88 86 84 79 75 72 69 67 66 64 62 59 56 55 55 56 55 53 51 52 52 52 53 53 53 54 52 48 41 34 38 41 41 37 29 24 21 19 16 3 343 323 299 275 259 249 243 242 244 250 254 257 259 260 260 261 261 260 259 259 258
218 182 125 71 89 146 121 126 141 24 25 255 238 187 194 272 291 137 129 158 185 159 139 127 113 105 99 98 98 98 99 96 93 92 91 89 87 83 80 77 74 71 66 62 60 59 58 54 51 50 52 53 52 51 49 49 49 48 48 48 47 48 48 46 42 39 38 38 39 36 31 24 14 8 8 6 356 341 326 313 296 280 268 257 250 248 248 250 254 257 259 260 262 262 261 260 260
126 92 49 19 8 25 56 91 96 67 294 247 229 202 185 269 296 206 184 208 171 153 147 139 116 107 104 101 103 103 102 101 98 95 92 89 85 80 77 76 73 68 62 55 53 53 52 51 48 47 50 51 50 49 46 44 42 40 40 39 39 40 40 37 35 34 33 32 34 34 32 26 14 2 354 350 348 344 338 330 319 302 291 280 271 263 255 250 249 251 254 257 260 261 261 261 261
97 76 58 28 339 6 31 6 43 103 250 259 240 202 176 213 264 243 302 315 155 149 156 153 126 110 109 107 109 109 108 106 102 99 96 92 87 82 77 72 68 62 55 50 50 51 51 52 49 47 49 49 47 45 42 40 37 36 34 32 31 32 31 29 28 28 27 25 26 29 32 30 24 13 356 342 337 338 339 338 333 320 308 296 285 277 268 261 254 250 249 250 253 255 257 259 259
81 83 79 66 343 4 14 313 15 199 246 255 223 138 161 221 250 349 357 350 59 107 122 130 121 114 112 111 113 113 112 108 104 101 96 92 85 78 72 67 63 58 54 54 53 53 54 55 51 49 50 49 45 42 39 37 35 34 32 28 26 25 23 22 23 24 24 23 21 22 24 26 26 22 13 358 345 336 333 336 337 331 321 309 297 286 275 267 261 256 252 250 249 250 252 255 256
130 134 131 123 98 40 268 257 253 263 264 256 227 108 246 250 295 26 19 15 75 100 112 119 120 119 118 120 121 117 113 108 103 100 94 87 79 72 67 62 58 57 59 59 59 59 58 56 54 51 51 49 43 39 36 33 33 32 30 27 24 20 17 14 14 16 18 18 17 17 18 20 21 21 17 9 1 353 342 337 336 334 329 321 310 299 288 276 266 261 258 256 253 250 250 251 253
179 165 142 143 155 178 225 231 220 250 270 276 276 288 217 211 348 25 50 63 82 100 112 119 120 124 126 128 128 122 116 111 106 100 91 84 79 75 70 66 66 70 71 68 65 62 57 56 57 55 55 53 47 42 39 35 33 30 25 21 18 15 12 8 7 7 7 8 8 7 8 11 13 14 12 7 2 359 353 348 343 339 336 332 325 316 305 292 279 270 264 261 259 256 253 252 252
228 146 119 165 192 178 215 248 212 201 272 284 272 252 206 144 82 59 74 73 79 92 105 111 116 126 133 134 132 127 122 117 111 101 92 89 88 88 88 90 91 85 78 71 65 63 60 61 61 59 59 59 56 53 47 41 37 28 21 17 12 9 5 2 0 359 360 360 359 358 358 0 1 1 359 356 352 351 350 349 347 344 341 338 334 328 320 311 298 286 278 271 266 261 258 257 255
203 111 171 223 189 147 161 283 264 177 250 253 224 264 305 85 83 68 73 74 83 92 103 113 123 133 138 140 139 136 131 125 116 108 104 106 106 109 108 100 89 78 69 64 62 62 64 64 65 64 65 65 64 62 58 52 45 34 24 14 7 2 357 355 353 351 352 352 350 350 352 351 350 350 349 348 345 343 341 340 339 339 338 336 334 330 325 320 313 304 296 287 280 272 265 261 259
138 178 223 238 95 95 112 256 279 255 248 248 240 255 257 225 235 134 100 108 116 121 122 124 133 142 146 148 147 145 139 133 128 124 124 125 125 120 107 87 72 65 61 58 59 61 62 62 59 57 54 53 53 51 51 48 45 42 35 25 14 3 356 351 349 347 346 343 340 341 343 343 343 343 342 341 339 339 338 336 334 332 330 329 329 328 325 320 316 312 306 299 291 283 275 269 264
125 186 220 102 89 286 276 168 212 239 251 267 262 252 244 238 217 164 169 174 161 162 151 140 154 162 161 157 154 152 147 146 146 144 144 141 134 118 94 77 64 61 58 55 54 53 51 47 42 38 35 35 34 32 31 28 26 25 22 19 16 8 1 354 350 347 343 339 336 335 336 337 338 337 336 334 333 332 332 332 333 332 329 327 324 323 322 318 315 313 309 304 296 287 280 277 272
48 48 5 45 166 193 219 192 180 214 245 266 265 254 251 252 207 175 191 188 167 162 162 173 185 178 170 164 163 163 161 161 162 159 157 153 142 123 94 76 60 58 55 51 45 37 33 28 25 24 22 20 18 16 16 14 13 11 8 5 1 358 356 352 351 349 346 343 339 336 335 333 334 333 330 329 328 327 326 325 327 328 329 328 326 323 320 317 315 312 310 307 302 294 285 281 277
58 36 356 290 239 207 254 248 168 165 216 244 255 253 249 263 237 182 188 176 161 166 168 184 192 184 179 176 174 174 173 172 173 171 170 165 156 145 118 96 72 64 53 45 37 28 23 18 15 13 10 7 6 5 5 4 3 1 358 356 353 351 349 347 346 344 342 342 340 339 338 335 333 331 327 325 324 322 321 320 320 321 323 324 325 325 323 320 317 314 310 307 304 302 297 291 285
144 159 197 201 207 203 276 270 206 164 195 203 231 260 262 272 303 158 158 150 158 169 167 175 191 192 191 190 187 185 184 187 188 184 181 167 143 128 106 83 69 59 45 37 30 22 17 11 6 3 359 356 355 354 354 354 353 352 351 350 349 348 347 345 344 341 339 338 337 337 336 334 333 331 329 327 324 321 319 317 316 315 315 316 317 319 320 320 319 317 314 311 307 303 301 299 296